Location: Ravensburg
(47.7866°N, 9.6124°E)
Time: 12:19:55
(UTC+01:00)

AO-73 - Visible Passes

Search period start: 15 March 2026 00:00
Search period end: 25 March 2026 00:00
Orbit: 516 x 568 km, 97.8° (Epoch: 14 March)

Date Brightness Start Highest point End Pass type
(mag) Time Alt. Az. Time Alt. Az. Time Alt. Az.
15 Mar ? 03:30:30 10° NE 03:33:05 25° ENE 03:33:05 25° ENE visible
15 Mar ? 05:05:02 10° N 05:08:17 26° WNW 05:08:39 26° WNW visible
16 Mar ? 03:23:57 10° NE 03:26:29 22° E 03:26:29 22° E visible
16 Mar ? 04:58:14 10° N 05:01:37 31° WNW 05:02:02 30° W visible
17 Mar ? 03:17:27 10° NE 03:19:51 19° E 03:19:51 19° E visible
17 Mar ? 04:51:26 10° N 04:54:56 36° WNW 04:55:25 35° W visible
18 Mar ? 03:11:00 10° NE 03:13:12 16° E 03:13:12 16° E visible
18 Mar ? 04:44:36 10° N 04:48:14 43° WNW 04:48:46 40° W visible
19 Mar ? 03:04:37 10° ENE 03:06:32 14° E 03:06:32 14° E visible
19 Mar ? 04:37:48 10° N 04:41:29 51° WNW 04:42:05 46° WSW visible
20 Mar ? 02:58:25 10° ENE 02:59:45 12° E 02:59:51 12° E visible
20 Mar ? 04:30:59 10° N 04:34:44 62° WNW 04:35:24 51° WSW visible
21 Mar ? 04:24:10 10° N 04:27:58 75° WNW 04:28:42 54° SW visible
22 Mar ? 04:17:21 10° NNE 04:21:08 89° NNE 04:21:59 53° SSW visible
23 Mar ? 04:10:31 10° NNE 04:14:18 75° ESE 04:15:15 48° S visible
23 Mar ? 05:47:04 10° NW 05:48:18 11° WNW 05:49:31 10° WNW visible
24 Mar ? 04:03:41 10° NNE 04:07:26 62° E 04:08:29 42° SSE visible
24 Mar ? 05:39:42 10° NNW 05:41:32 13° WNW 05:43:21 10° W visible
